Location: �terpigny
(49.8910°N, 2.9249°E)
Time: 13:03:58
(UTC+00:00)

Gurwin Techsat 1B - Pass Details

Date: 05 July 2022
Orbit: 812 x 813 km, 98.8° (Epoch: 13 August)

Event Time Altitude Azimuth Distance (km) Brightness Sun altitude
Rises 02:07:02 0° 18° (NNE) 3,348 13.6 -11.5°
Reaches altitude 10° 02:09:27 10° 23° (NNE) 2,412 12.6 -11.3°
Maximum altitude 02:14:40 53° 100° (E) 995 9.2 -10.8°
Drops below altitude 10° 02:19:50 10° 178° (S) 2,395 10.6 -10.3°
Enters shadow 02:20:27 - 179° (S) 2,632 10.8 -10.3°
